Home   Weather   Texcoco   Past weeks
Flag for Mexico

Past Weather in Texcoco, México, Mexico — Yesterday and Last 2 Weeks

Now
61 °F

Mostly cloudy.


Feels Like: 61 °F
Forecast: 72 / 56 °F
Wind: 12 mph from Southeast

Location: Mexico City / Licenci

Current Time: Aug 24, 2019 at 2:20:55 am

Latest Report: Aug 24, 2019 at 12:45 am


Visibility: 8 mi

Pressure: 29.88 "Hg (22.90 "Hg at 2250m altitude)

Humidity: 77%

Dew Point: 54 °F

Location of TexcocoLocation

Past Weather in Texcoco — Graph

°F

Texcoco Temperature Yesterday

Maximum temperature yesterday: 75 °F (at 1:44 pm)
Minimum temperature yesterday: 61 °F (at 5:43 am)
Average temperature yesterday: 65 °F

High & Low Weather Summary for the Past Weeks

 TemperatureHumidityPressure
High81 °F (Aug 16, 4:27 pm)94% (Aug 14, 12:16 am)30.42 "Hg (Aug 14, 12:16 am)
Low54 °F (Aug 20, 5:43 am)24% (Aug 16, 4:27 pm)29.58 "Hg (Aug 14, 6:44 pm)
Average67 °F60%30.18 "Hg
* Reported Aug 9 12:33 am — Aug 24 12:45 am, Texcoco. Weather by CustomWeather, © 2019

Note: Actual official high and low records may vary slightly from our data, if they occured in-between our weather recording intervals... More about our weather records

Advertising

Texcoco Weather History for the Previous 24 Hours

Scroll right to see more
 ConditionsComfort  
Time TempWeatherWind HumidityBarometerVisibility
12:45 am
Sat, Aug 24
61 °FMostly cloudy.12 mph77%29.88 "Hg8 mi
12:20 am61 °FMostly cloudy.10 mph72%30.41 "Hg7 mi
11:56 pm
Fri, Aug 23
63 °FLight rain. Mostly cloudy.13 mph68%30.40 "Hg8 mi
10:40 pm63 °FOvercast.5 mph68%30.36 "Hg8 mi
9:45 pm63 °FMostly cloudy.No wind73%29.88 "Hg8 mi
8:45 pm63 °FMostly cloudy.8 mph77%30.32 "Hg7 mi
8:38 pm63 °FMostly cloudy.8 mph77%30.32 "Hg7 mi
8:21 pm63 °FLight rain. Mostly cloudy.12 mph77%30.32 "Hg7 mi
7:44 pm61 °FThunderstorms. Mostly cloudy.9 mph77%30.31 "Hg5 mi
6:48 pm63 °FThunderstorms. Mostly cloudy.13 mph83%29.87 "Hg3 mi
6:38 pm63 °FThunderstorms. Mostly cloudy.15 mph83%30.29 "Hg3 mi
6:12 pm64 °FThunderstorms. Mostly cloudy.9 mph68%30.27 "Hg6 mi
5:44 pm64 °FThunderstorms. Mostly cloudy.9 mph68%30.27 "Hg6 mi
5:02 pm66 °FThunderstorms. Mostly cloudy.13 mph60%30.26 "Hg6 mi
3:55 pm73 °FPartly sunny.16 mph44%30.25 "Hg6 mi
2:45 pm75 °FBroken clouds.6 mph41%30.27 "Hg6 mi
1:44 pm75 °FScattered clouds.9 mph41%30.30 "Hg6 mi
12:46 pm72 °FBroken clouds.6 mph50%29.78 "Hg5 mi
11:57 am72 °FScattered clouds.5 mph50%30.34 "Hg5 mi
10:49 am70 °FPassing clouds.8 mph57%30.34 "Hg5 mi
9:48 am66 °FScattered clouds.5 mph64%29.84 "Hg5 mi
8:45 am63 °FScattered clouds.5 mph73%30.36 "Hg5 mi
7:47 am61 °FBroken clouds.8 mph77%30.36 "Hg5 mi
6:51 am61 °FPassing clouds.8 mph77%29.86 "Hg5 mi
5:43 am61 °FPassing clouds.5 mph77%30.34 "Hg6 mi
4:42 am63 °FMostly cloudy.7 mph73%30.34 "Hg6 mi
3:40 am63 °FMostly cloudy.3 mph73%29.81 "Hg6 mi
2:42 am63 °FMostly cloudy.6 mph68%30.34 "Hg6 mi
Weather by CustomWeather, © 2019

See weather overview